[[{"header":{"parameterUnit":"m.s-1","parameterCategory":1,"la1":30.2991,"la2":30.254,"lo1":-89.0895,"lo2":-89.0444,"dy":0.0017,"dx":0.0017,"nx":28,"ny":28,"refTime":"2024-10-04T09:00:00:Z","depth":0,"parameterNumber":2,"parameterNumberName":"U-component_of_WINDS"},"data":[0,0,0,0,0,0,0,0,0,0,0,0,0,0,0,0,0,0,0,0,0,0,0,0,0,0,0,0,0,0,0,0,0,0,0,0,0,0,0,0,0,0,0,0,0,0,0,0,0,0,0,0,0,0,0,0,0,0,-4.9149,-4.9149,0,-4.9172,-4.9172,-4.9173,-4.9062,-4.9059,-4.9056,-4.9053,-4.9076,-4.9079,-4.9083,0,0,0,0,0,0,0,0,0,0,0,0,0,-4.901,-4.9013,-4.9149,-4.9149,-4.915,-4.9172,-4.9172,-4.9173,-4.9063,-4.9059,-4.9055,-4.9051,-4.9075,-4.9079,-4.9083,0,0,0,0,0,0,0,0,0,0,0,0,0,-4.9056,-4.9014,-4.9149,-4.9098,-4.9093,-4.9172,-4.9172,-4.9173,-4.9064,-4.9059,-4.9054,-4.9049,-4.9073,-4.9079,-4.9084,-4.9213,0,0,-4.91,-4.9103,0,0,0,0,0,0,0,0,-4.9053,-4.9061,-4.9105,-4.9101,-4.9096,-4.9109,-4.9132,-4.9186,-4.9065,-4.9075,-4.9053,-4.9047,-4.9091,-4.9095,-4.9109,-4.9214,-4.9215,-4.9101,-4.9104,-4.9106,-4.9108,0,0,0,0,0,0,0,-4.905,-4.9059,-4.9158,-4.9106,-4.9101,-4.9073,-4.9075,-4.9142,-4.9109,-4.9073,-4.9066,-4.907,-4.9088,-4.9104,-4.9109,-4.9216,-4.9101,-4.9105,-4.9109,-4.9111,-4.9431,-4.9436,0,0,0,0,0,0,-4.9054,-4.9057,-4.9157,-4.9159,-4.9063,-4.908,-4.9081,-4.911,-4.9108,-4.9104,-4.9074,-4.9065,-4.9098,-4.9103,-4.9109,-4.9263,-4.9106,-4.9111,-4.9115,-4.9425,-4.9432,-4.9438,0,0,0,0,0,0,-4.9051,-4.9064,-4.9156,-4.9106,-4.9116,-4.9087,-4.9121,-4.9113,-4.913,-4.9109,-4.9102,-4.9097,-4.9094,-4.9102,-4.9189,-4.9262,-4.9114,-4.9119,-4.9419,-4.9427,-4.9435,-4.957,0,0,0,0,0,0,-4.9048,-4.9064,-4.9112,-4.9108,-4.9119,-4.9236,-4.9125,-4.9117,-4.9139,-4.9127,-4.9129,-4.9124,-4.9091,-4.9182,-4.9194,-4.9267,-4.9123,-4.9413,-4.9423,-4.9432,-4.9559,-4.9581,-4.9601,0,0,0,0,0,-4.9043,-4.9149,-4.9115,-4.9128,-4.9179,-4.924,-4.9246,-4.9206,-4.9146,-4.9195,-4.9182,-4.9124,-4.9252,-4.9191,-4.9205,-4.928,-4.9408,-4.942,-4.9431,-4.9549,-4.9577,-4.96,0,0,0,0,0,0,-4.9162,-4.9147,-4.911,-4.9217,-4.9231,-4.9221,-4.9282,-4.9236,-4.9267,-4.9254,-4.9202,-4.9204,-4.93,-4.9298,-4.9231,-4.9407,-4.9319,-4.9335,-4.9404,-4.9431,-4.9451,-4.945,-4.9127,0,0,0,0,0,-4.9201,-4.9251,-4.9236,-4.9332,-4.9341,-4.9311,-4.9335,-4.9303,-4.9315,-4.932,-4.9313,-4.9327,-4.937,-4.94,-4.9438,-4.9558,-4.9557,-4.9616,-4.9637,-4.9655,-4.9669,-4.9734,-4.9761,-4.9476,-4.9476,-4.9476,0,0,-4.9281,-4.9279,-4.9314,-4.9356,-4.9362,-4.9417,-4.9316,-4.9377,-4.9417,-4.9329,-4.9412,-4.9408,-4.942,-4.9524,-4.957,-4.9526,-4.9747,-4.967,-4.9684,-4.9688,-4.9749,-4.9776,-4.98,-4.9484,-4.9483,-4.9482,0,0,-4.9455,-4.9459,-4.954,-4.955,-4.9561,-4.9541,-4.9561,-4.9559,-4.9553,-4.9635,-4.9571,-4.9618,-4.9693,-4.9705,-4.9721,-4.9902,-4.9852,-4.9916,-5.0026,-5.0091,-5.0113,-5.0133,-5.02,-5.0224,-4.993,-4.993,-4.9931,0,-4.9554,-4.9633,-4.9588,-4.9654,-4.9675,-4.9599,-4.9682,-4.9693,-4.9717,-4.9733,-4.9683,-4.9778,-4.978,-4.9888,-4.9932,-4.9947,-4.9969,-4.9916,-5.0114,-5.0133,-5.015,-5.0214,-5.0239,-4.9938,-4.9937,-4.9937,-4.9936,0,-4.9755,-4.9811,-4.9875,-4.9902,-4.9929,-5.0004,-4.9971,-5.0004,-4.997,-4.9955,-5.0041,-5.0041,-5.008,-5.0103,-5.0069,-5.0206,-5.0179,-5.0122,-5.0034,-5.0186,-5.0245,-5.0269,-4.995,-4.9947,-4.9944,-4.9942,0,0,-5.0004,-5.0006,-5.003,-5.0043,-5.0051,-5.0094,-5.0165,-5.0203,-5.0234,-5.0254,-5.0313,-5.038,-5.0328,-5.0346,-5.0314,-5.037,-5.0517,-5.0306,-5.0306,-5.0347,-5.0671,-5.0715,-5.0743,-5.0483,-5.0487,-5.0491,-5.067,0,-5.0177,-5.0299,-5.0262,-5.0386,-5.0438,-5.0367,-5.043,-5.0442,-5.0431,-5.0474,-5.046,-5.0509,-5.0436,-5.0447,-5.0499,-5.0488,-5.0581,-5.0474,-5.0539,-5.0542,-5.054,-5.0774,-5.082,-5.0989,-5.0693,-5.0697,-5.0699,0,-5.0394,-5.0424,-5.0554,-5.0556,-5.0576,-5.0633,-5.0666,-5.0708,-5.0721,-5.0709,-5.0731,-5.0687,-5.0758,-5.0669,-5.0767,-5.0696,-5.072,-5.0719,-5.0724,-5.073,-5.0631,-5.0788,-5.1042,-5.1069,-5.0735,-5.0732,-5.0729,0,-5.0567,-5.0639,-5.0726,-5.0738,-5.0742,-5.0784,-5.0787,-5.0796,-5.0822,-5.0851,-5.0868,-5.0904,-5.0925,-5.0955,-5.0923,-5.086,-5.1027,-5.0934,-5.102,-5.1021,-5.1059,-5.1058,-5.1323,-5.1072,-5.1072,-5.1071,-5.1071,0,-5.0764,-5.0847,-5.0804,-5.0858,-5.0949,-5.0905,-5.0996,-5.0991,-5.1,-5.1052,-5.0992,-5.1043,-5.0997,-5.1044,-5.1019,-5.1105,-5.1114,-5.1108,-5.11,-5.1114,-5.1115,-5.113,-5.1119,-5.1078,-5.1077,-5.1075,-5.1074,0,-5.0972,-5.0946,-5.1037,-5.1034,-5.1035,-5.1103,-5.11,-5.115,-5.1134,-5.1202,-5.1215,-5.1191,-5.1243,-5.1214,-5.1267,-5.125,-5.1364,-5.1339,-5.136,-5.1354,-5.1442,-5.1435,-5.1728,-5.1766,-5.1489,-5.1492,-5.1494,0,-5.1101,-5.1163,-5.1167,-5.1199,-5.1206,-5.1257,-5.1284,-5.1243,-5.1274,-5.1295,-5.1343,-5.139,-5.1426,-5.1513,-5.15,-5.1541,-5.1519,-5.1619,-5.1524,-5.1537,-5.1523,-5.152,-5.1527,-5.1638,-5.1641,-5.1644,-5.1646,0,-5.1333,-5.1318,-5.1359,-5.1397,-5.1431,-5.1459,-5.1481,-5.151,-5.147,-5.1507,-5.156,-5.1588,-5.1643,-5.1692,-5.1727,-5.1731,-5.1683,-5.1676,-5.1698,-5.1714,-5.1724,-5.1722,-5.1414,-5.1669,-5.1667,-5.1665,-5.1664,-5.1663,-5.1507,-5.156,-5.1572,-5.162,-5.1633,-5.1656,-5.1704,-5.1695,-5.1739,-5.1781,-5.1754,-5.1817,-5.183,-5.1873,-5.1884,-5.1933,-5.1893,-5.1925,-5.1933,-5.1942,-5.1956,-5.1715,-5.1939,-5.1938,-5.1938,-5.1937,-5.1937,0,-5.1738,-5.1742,-5.1787,-5.1822,-5.1861,-5.1812,-5.1835,-5.187,-5.1927,-5.1943,-5.198,-5.2043,-5.209,-5.2082,-5.2125,-5.2166,-5.2145,-5.2179,-5.2176,-5.2178,-5.1988,-5.1965,-5.2195,-5.2195,-5.2195,-5.2195,-5.2195,-5.2195,-5.1863,-5.1951,-5.1937,-5.2031,-5.2035,-5.2097,-5.2114,-5.2136,-5.2149,-5.2222,-5.2261,-5.2255,-5.2262,-5.2306,-5.2347,-5.2344,-5.2363,-5.2406,-5.2395,-5.2217,-5.2191,-5.2167,-5.2146,-5.241,-5.241,-5.2581,-5.2583,-5.2584]},{"header":{"parameterUnit":"m.s-1","parameterCategory":1,"la1":30.2991,"la2":30.254,"lo1":-89.0895,"lo2":-89.0444,"dy":0.0017,"dx":0.0017,"nx":28,"ny":28,"refTime":"2024-10-04T09:00:00:Z","depth":0,"parameterNumber":3,"parameterNumberName":"V-component_of_WINDS"},"data":[0,0,0,0,0,0,0,0,0,0,0,0,0,0,0,0,0,0,0,0,0,0,0,0,0,0,0,0,0,0,0,0,0,0,0,0,0,0,0,0,0,0,0,0,0,0,0,0,0,0,0,0,0,0,0,0,0,0,-2.6699,-2.67,0,-2.6711,-2.6711,-2.6711,-2.6676,-2.6675,-2.6674,-2.6673,-2.6685,-2.6686,-2.6688,0,0,0,0,0,0,0,0,0,0,0,0,0,-2.6645,-2.6647,-2.6699,-2.67,-2.67,-2.6711,-2.6711,-2.6711,-2.6676,-2.6675,-2.6674,-2.6672,-2.6685,-2.6686,-2.6688,0,0,0,0,0,0,0,0,0,0,0,0,0,-2.6664,-2.6647,-2.6699,-2.6684,-2.6682,-2.6711,-2.6711,-2.6711,-2.6677,-2.6675,-2.6673,-2.6672,-2.6684,-2.6686,-2.6688,-2.6732,0,0,-2.6694,-2.6695,0,0,0,0,0,0,0,0,-2.6663,-2.6666,-2.6686,-2.6685,-2.6683,-2.669,-2.6696,-2.6718,-2.6677,-2.6679,-2.6673,-2.6671,-2.6688,-2.669,-2.6695,-2.6733,-2.6733,-2.6694,-2.6695,-2.6696,-2.6697,0,0,0,0,0,0,0,-2.6662,-2.6666,-2.6704,-2.6686,-2.6685,-2.6675,-2.6676,-2.67,-2.6692,-2.6679,-2.6676,-2.6678,-2.6687,-2.6694,-2.6695,-2.6734,-2.6694,-2.6696,-2.6697,-2.6698,-2.6806,-2.6808,0,0,0,0,0,0,-2.6663,-2.6665,-2.6704,-2.6704,-2.6669,-2.6678,-2.6679,-2.669,-2.6692,-2.6691,-2.6679,-2.6676,-2.6691,-2.6693,-2.6696,-2.6747,-2.6696,-2.6698,-2.6699,-2.6804,-2.6806,-2.6808,0,0,0,0,0,0,-2.6662,-2.6667,-2.6703,-2.6684,-2.6688,-2.668,-2.6693,-2.6691,-2.6697,-2.6692,-2.6691,-2.6687,-2.669,-2.6693,-2.6723,-2.6747,-2.6699,-2.6701,-2.6802,-2.6805,-2.6807,-2.685,0,0,0,0,0,0,-2.666,-2.6666,-2.6684,-2.6684,-2.6689,-2.6731,-2.6695,-2.6692,-2.6701,-2.6697,-2.67,-2.6699,-2.6689,-2.672,-2.6725,-2.6749,-2.6702,-2.68,-2.6804,-2.6807,-2.6847,-2.6854,-2.686,0,0,0,0,0,-2.6659,-2.6696,-2.6685,-2.669,-2.6711,-2.6732,-2.6735,-2.6723,-2.6703,-2.672,-2.6716,-2.6699,-2.6743,-2.6724,-2.6729,-2.6753,-2.6799,-2.6803,-2.6806,-2.6844,-2.6853,-2.686,0,0,0,0,0,0,-2.6699,-2.6696,-2.6684,-2.6722,-2.6728,-2.6727,-2.6748,-2.6733,-2.6744,-2.674,-2.6724,-2.6725,-2.6758,-2.6759,-2.6737,-2.6795,-2.6767,-2.6773,-2.6794,-2.6803,-2.6809,-2.6809,-2.6704,0,0,0,0,0,-2.6713,-2.6731,-2.6727,-2.6761,-2.6765,-2.6756,-2.6765,-2.6755,-2.676,-2.6762,-2.6761,-2.6767,-2.6781,-2.6792,-2.6806,-2.6846,-2.6846,-2.6866,-2.6872,-2.6878,-2.6883,-2.6903,-2.6911,-2.6821,-2.6821,-2.6821,0,0,-2.6741,-2.6741,-2.6754,-2.6769,-2.6773,-2.6791,-2.6758,-2.678,-2.6793,-2.6765,-2.6794,-2.6793,-2.6798,-2.6833,-2.6849,-2.6834,-2.6907,-2.6883,-2.6887,-2.6889,-2.6908,-2.6916,-2.6924,-2.6823,-2.6823,-2.6823,0,0,-2.6801,-2.6804,-2.6832,-2.6835,-2.684,-2.6833,-2.684,-2.6841,-2.6839,-2.6867,-2.6846,-2.6861,-2.6888,-2.6892,-2.6897,-2.6957,-2.6941,-2.6962,-2.6997,-2.7017,-2.7024,-2.7031,-2.7051,-2.7059,-2.6966,-2.6966,-2.6966,0,-2.6836,-2.6864,-2.6849,-2.6871,-2.6878,-2.6853,-2.6881,-2.6885,-2.6894,-2.6899,-2.6883,-2.6915,-2.6916,-2.6951,-2.6966,-2.6971,-2.6978,-2.6962,-2.7024,-2.7031,-2.7036,-2.7056,-2.7064,-2.6969,-2.6969,-2.6968,-2.6968,0,-2.6905,-2.6925,-2.6947,-2.6955,-2.6965,-2.699,-2.6978,-2.6989,-2.6977,-2.6972,-2.7,-2.7001,-2.7014,-2.7021,-2.7011,-2.7054,-2.7045,-2.7027,-2.6999,-2.7048,-2.7066,-2.7073,-2.6972,-2.6972,-2.6971,-2.697,0,0,-2.6994,-2.6992,-2.7001,-2.7003,-2.7005,-2.702,-2.7043,-2.7055,-2.7065,-2.7071,-2.709,-2.7112,-2.7094,-2.71,-2.709,-2.7107,-2.7153,-2.7086,-2.7086,-2.7099,-2.7201,-2.7215,-2.7224,-2.7142,-2.7143,-2.7144,-2.72,0,-2.7054,-2.7094,-2.708,-2.712,-2.7137,-2.7112,-2.7132,-2.7135,-2.713,-2.7143,-2.7138,-2.7154,-2.713,-2.7133,-2.7149,-2.7144,-2.7174,-2.714,-2.7159,-2.716,-2.7159,-2.7234,-2.7249,-2.7302,-2.7207,-2.7209,-2.7209,0,-2.7129,-2.7138,-2.718,-2.7177,-2.7183,-2.7202,-2.721,-2.7224,-2.7226,-2.7221,-2.7227,-2.7212,-2.7233,-2.7204,-2.7234,-2.7211,-2.7218,-2.7217,-2.7218,-2.722,-2.7188,-2.7238,-2.7319,-2.7327,-2.7221,-2.722,-2.7219,0,-2.719,-2.7211,-2.7239,-2.7242,-2.7239,-2.7253,-2.7252,-2.7253,-2.726,-2.7268,-2.7272,-2.7282,-2.7288,-2.7296,-2.7284,-2.7264,-2.7315,-2.7285,-2.7311,-2.7311,-2.7324,-2.7323,-2.7407,-2.7328,-2.7328,-2.7327,-2.7327,0,-2.7258,-2.7285,-2.7265,-2.7283,-2.7311,-2.7294,-2.7322,-2.7319,-2.7319,-2.7335,-2.7313,-2.7328,-2.7311,-2.7324,-2.7314,-2.734,-2.7343,-2.7339,-2.7336,-2.7341,-2.7342,-2.7346,-2.7342,-2.7329,-2.7329,-2.7329,-2.7328,0,-2.7331,-2.7319,-2.7347,-2.7342,-2.7341,-2.7362,-2.7357,-2.7372,-2.7365,-2.7385,-2.7388,-2.7377,-2.7391,-2.7379,-2.7393,-2.7387,-2.742,-2.7412,-2.742,-2.7418,-2.7445,-2.7442,-2.7535,-2.7546,-2.7459,-2.746,-2.746,0,-2.7376,-2.7395,-2.7391,-2.74,-2.74,-2.7414,-2.7421,-2.7404,-2.7412,-2.7415,-2.743,-2.7442,-2.7451,-2.7474,-2.7467,-2.7477,-2.747,-2.7501,-2.7471,-2.7475,-2.747,-2.7469,-2.7471,-2.7508,-2.7509,-2.7509,-2.751,0,-2.7456,-2.7449,-2.746,-2.7468,-2.7476,-2.7482,-2.7486,-2.7494,-2.7476,-2.7486,-2.75,-2.7507,-2.752,-2.7532,-2.754,-2.7539,-2.7522,-2.7519,-2.7526,-2.7532,-2.7535,-2.7534,-2.7437,-2.7518,-2.7517,-2.7516,-2.7516,-2.7516,-2.7517,-2.7532,-2.7531,-2.7543,-2.7544,-2.7548,-2.7561,-2.7555,-2.7566,-2.7575,-2.7564,-2.758,-2.758,-2.7588,-2.7589,-2.7602,-2.7589,-2.7598,-2.7601,-2.7604,-2.7608,-2.7533,-2.7603,-2.7603,-2.7603,-2.7602,-2.7602,0,-2.7596,-2.7593,-2.7604,-2.761,-2.7619,-2.76,-2.7603,-2.7612,-2.7627,-2.7628,-2.7637,-2.7652,-2.7663,-2.7656,-2.7665,-2.7676,-2.7668,-2.7679,-2.7679,-2.7679,-2.7619,-2.7612,-2.7685,-2.7685,-2.7685,-2.7685,-2.7685,-2.7685,-2.7638,-2.7663,-2.7655,-2.768,-2.7677,-2.7693,-2.7696,-2.7699,-2.7699,-2.7717,-2.7725,-2.772,-2.7718,-2.7726,-2.7735,-2.7733,-2.7738,-2.7751,-2.7746,-2.7691,-2.7683,-2.7675,-2.7669,-2.7752,-2.7752,-2.7805,-2.7805,-2.7806]}]]